Regional Weather Roundup
Issued by NWS

Home | Current Version | Previous Version | Text Only | Print | Product List | Glossary On
Versions: 1 2 3 4 5 6 7 8 9 10 11 12 13 14 15 16 17 18 19 20 21 22 23 24 25 26 27 28 29 30 31 32 33 34 35 36 37 38 39 40 41 42 43 44 45 46 47 48 49 50
000
ASUS45 KTFX 251510
RWRMT
MONTANA REGIONAL WEATHER ROUNDUP
NATIONAL WEATHER SERVICE GREAT FALLS MT
900 AM MDT THU MAY 25 2017

NOTE: "FAIR" INDICATES FEW OR NO CLOUDS BELOW 12000 FEET WITH NO
SIGNIFICANT WEATHER AND/OR OBSTRUCTIONS TO VISIBILITY.

MTZ001>007-043-251600-
WEST OF THE DIVIDE

CITY           SKY/WX    TMP DP  RH WIND       PRES   REMARKS
KALISPELL      CLOUDY    47  40  76 CALM      29.80R
MISSOULA       CLOUDY    51  35  54 VRB3      29.81R
BUTTE          CLOUDY    42  30  62 NE8       29.80R
MULLAN PASS    PTSUNNY   42  30  62 CALM      29.79R
ANACONDA         N/A     43  32  65 N7        29.80R
DEER LODGE       N/A     43  34  70 CALM      29.83R
EUREKA           N/A     48  37  66 CALM      29.80F
HAMILTON         N/A     50  32  50 CALM      29.80R
RONAN            N/A     52  34  50 SW1       29.86R
$$

MTZ008-052>055-251600-
SOUTHWEST MONTANA

CITY           SKY/WX    TMP DP  RH WIND       PRES   REMARKS
BOZEMAN        LGT RAIN  41  37  86 SE7       29.78S
DILLON         CLOUDY    44  24  45 SW7       29.78R
W YELLOWSTONE  CLOUDY    37  18  44 CALM      29.77R
ENNIS          PTSUNNY   41  28  60 N9        29.83R
THREE FORKS      N/A     45  35  67 CALM      29.79R
TWIN BRIDGES     N/A     44  27  51 N7        29.81R
$$

MTZ009-010-012-014-046-048-049-054-251600-
EAST SLOPES AND CENTRAL MONTANA

CITY           SKY/WX    TMP DP  RH WIND       PRES   REMARKS
CUT BANK       MOSUNNY   49  37  63 NW38G48   29.67R
GREAT FALLS    CLOUDY    49  38  65 NW21G31   29.68R
MALMSTROM AFB  CLOUDY    48  38  68 W18G28    29.68R
HELENA         CLOUDY    47  37  68 W10       29.77R
CHOTEAU          N/A     52  36  54 NW31G40   29.71R
CONRAD           N/A     51  48  89 W28       29.72R
$$

MTZ011-013-016-021-045-047-050-051-251600-
NORTH CENTRAL MONTANA

CITY           SKY/WX    TMP DP  RH WIND       PRES   REMARKS
HAVRE          CLOUDY    50  43  77 NW24G39   29.51R
LEWISTOWN      LGT RAIN  43  40  89 NW26G37   29.58R FOG
N BAR RANCH    MIX PCPN  45  39  81 W26G38    29.56R
CHINOOK          N/A     52  43  71 W23G31    29.44R
FORT BENTON      N/A     50  39  66 CALM      29.60R
$$

MTZ017>020-022>027-061-062-251600-
NORTHEAST MONTANA

CITY           SKY/WX    TMP DP  RH WIND       PRES   REMARKS
GLASGOW        CLOUDY    55  43  63 W22G37    29.34R
JORDAN           N/A     51  41  68 W25G35    29.43S
WOLF POINT     CLOUDY    55  44  66 SW16G24   29.34S
MALTA          CLOUDY    54  45  71 W25       29.38S
PLENTYWOOD       N/A     52  45  76 SW22G28   29.29F
POPLAR           N/A     54  43  66 W20       29.34F
$$

MTZ028>42-056>058-251600-
SOUTHCENTRAL AND SOUTHEAST MONTANA

CITY           SKY/WX    TMP DP  RH WIND       PRES   REMARKS
BAKER          SUNNY     54  34  46 W24G32    29.48S
BILLINGS       CLOUDY    49  34  56 W25G35    29.62R
LIVINGSTON     CLOUDY    41  35  79 W20G31    29.72R
MILES CITY     PTSUNNY   59  34  39 W25G35    29.48S
BIG TIMBER     PTSUNNY   41  36  81 W24G39    29.70R
EKALAKA          N/A     52  31  44 W13       29.54
FORSYTH          N/A     54  36  50 W20G28    29.50S
LAUREL           N/A     47  32  56 SW22      29.66R
ROUNDUP          N/A     47  36  65 SW13      29.53R
$$

REGIONAL REPORTS...DAKOTAS

CITY           SKY/WX    TMP DP  RH WIND       PRES   REMARKS
WILLISTON      CLOUDY    56  42  59 SW16G26   29.36F
MINOT          MOSUNNY   61  51  70 S10       29.36F
DICKINSON      MOSUNNY   57  35  43 W18G25    29.42S
BEACH            N/A     54  37  54 W25G32    29.47S
TIOGA            N/A     54  46  76 SW25G36   29.35F
WATFORD CITY     N/A     55  41  58 W23       29.38S
BISMARCK       CLOUDY    57  48  72 SW8       29.43S
GRAND FORKS    CLOUDY    60  48  64 S24G31    29.53F
FARGO          MOSUNNY   62  47  57 S25G41    29.54F
BUFFALO SD       N/A     59  33  37 W17       29.43S
RAPID CITY     CLOUDY    62  29  28 NW16      29.52S
$$

REGIONAL REPORTS...WYOMING/IDAHO/WASHINGTON

CITY           SKY/WX    TMP DP  RH WIND       PRES   REMARKS
GILLETTE       MOSUNNY   53  29  39 NW13      29.58R
SHERIDAN       SUNNY     55  30  38 N10       29.59R
BUFFALO WY     SUNNY     53  23  31 N13       29.60S
CODY           SUNNY     51  24  34 NE8       29.65R
YELLOWSTONE LA   N/A     34  16  47 NW5       29.78R
IDAHO FALLS    SUNNY     48  22  35 SW5       29.77R
SALMON         SUNNY     48  28  46 CALM      29.79R
BOISE          MOSUNNY   50  35  56 W10       29.77S
SPOKANE        CLOUDY    49  40  71 CALM      29.80R
$$

REGIONAL REPORTS...ALBERTA

CITY           SKY/WX    TMP DP  RH WIND       PRES   REMARKS
EDMONTON       MOSUNNY   54  43  66 N15G21    29.71R
CALGARY        MOSUNNY   50  34  53 N31G38    29.74R
LETHBRIDGE     MOSUNNY   52  37  58 NW24G36   29.68R
MEDICINE HAT   LGT RAIN  48  41  76 NW28G36   29.50R
WATERTON GATE    N/A     52  32  46 N12G23      N/A
CARDSTON         N/A     50  36  57 N21G29      N/A
MILK RIVER       N/A     50  39  66 NW36G49     N/A
ONEFOUR          N/A     46  41  81 NW33G44     N/A
$$

REGIONAL REPORTS...SASKATCHEWAN

CITY           SKY/WX    TMP DP  RH WIND       PRES   REMARKS
SWIFT CURRENT  CLOUDY    45  43  93 NW17G25   29.26R
REGINA         CLOUDY    48  43  81 SE12G18   29.20F
SASKATOON      PTSUNNY   52  46  82 N18G25    29.25R
CYPRESS HILLS    N/A     41  39  93 NW17G31     N/A
ROCKGLEN         N/A     50  43  76 W21G26      N/A
ASSINIBOIA       N/A     50  39  66 NW22G29     N/A
$$



USA.gov is the U.S. government's official web portal to all federal, state and local government web resources and services.